{"data":{"norad_id":56780,"epoch":"2026-09-20T03:31:27.319872Z","epoch_age_seconds":145408,"freshness":"FRESH","line1":"1 56780U 23078P   26263.14684398  .00000347  00000+0  36838-4 0  9993","line2":"2 56780  69.9996 213.9556 0003437 269.5817  90.4948 14.98330162181812","mean_motion":14.98330162,"eccentricity":0.0003437,"inclination_deg":69.9996,"raan_deg":213.9556,"arg_perigee_deg":269.5817,"mean_anomaly_deg":90.4948,"bstar":3.6838e-5,"rev_number":18181,"period_min":96.10698873457,"perigee_km":569.66660884839,"apogee_km":574.44417109726,"semimajor_km":6950.1923899728,"source":"CELESTRAK","updated_at":"2026-09-21T09:00:33.487685Z"}}